FW6883 Weather Reports


Display with metric or nautical units.
time (UTC)temp
F
wind
direction
speed
MPH
gust
MPH
rain 1hr
in
rain 24hr
in
rain mn
in
humidity
%
barometer
mb
20260505124557 33 108 2.0 4.0 0.03 0.05 0.05 96 1007.7
20260505123112 34 126 0.0 3.0 0.01 0.03 0.03 96 1007.5
20260505121551 34 105 1.0 4.0 0.01 0.03 0.03 96 1007.8
20260505120049 34 83 1.0 5.0 0.00 0.02 0.02 96 1007.9
20260505114609 33 86 2.0 7.0 0.00 0.02 0.02 96 1007.9
20260505113044 33 130 0.0 4.0 0.00 0.02 0.02 96 1007.8
20260505111555 34 123 0.0 3.0 0.00 0.02 0.02 97 1008.2
20260505101535 33 82 0.0 4.0 0.00 0.02 0.02 96 1008.0
20260505100033 33 157 2.0 4.0 0.00 0.02 0.02 96 1008.1
20260505094528 34 207 0.0 6.0 0.00 0.02 0.02 96 1008.2
20260505093028 34 100 3.0 7.0 0.00 0.02 0.02 96 1008.5
20260505091525 34 105 0.0 3.0 0.00 0.02 0.02 96 1008.7
20260505090018 34 102 1.0 3.0 0.00 0.02 0.02 96 1008.8
20260505084519 33 104 0.0 4.0 0.01 0.02 0.02 96 1008.9
20260505083017 34 91 1.0 3.0 0.01 0.02 0.02 96 1008.9
20260505081511 34 105 2.0 5.0 0.01 0.02 0.02 96 1009.4
20260505080025 34 104 3.0 8.0 0.01 0.02 0.02 96 1009.4
20260505074501 34 108 0.0 3.0 0.01 0.01 0.01 96 1009.6
20260505073106 34 110 0.0 2.0 0.01 0.01 0.01 96 1009.8
20260505071553 34 153 1.0 4.0 0.01 0.01 0.01 96 1010.0
20260505070051 35 105 1.0 7.0 0.01 0.01 0.01 96 1010.2
20260505064557 35 110 0.0 3.0 0.00 0.00 0.00 96 1010.0
20260505063051 35 101 0.0 3.0 0.00 0.00 0.00 96 1010.2
20260505061544 35 107 1.0 6.0 0.00 0.00 0.00 96 1010.2
20260505060041 35 145 1.0 5.0 0.00 0.00 0.00 96 1010.3
20260505054539 35 125 0.0 3.0 0.00 0.00 0.00 96 1010.3
20260505053037 35 106 1.0 5.0 0.00 0.00 0.00 96 1010.3
20260505051535 35 110 2.0 11.0 0.00 0.00 0.00 96 1010.4
20260505041531 35 126 6.0 13.0 0.00 0.00 0.00 96 1010.0
20260505040021 35 108 2.0 10.0 0.00 0.00 0.00 95 1010.1
20260505034518 35 109 2.0 8.0 0.00 0.00 0.00 95 1009.6
20260505033019 35 101 8.0 15.0 0.00 0.00 0.00 95 1009.6
20260505031515 36 105 7.0 14.0 0.00 0.00 0.00 95 1009.4
20260505030012 36 109 6.0 16.0 0.00 0.00 0.00 95 1009.4
20260505024531 36 99 8.0 20.0 0.00 0.00 0.00 95 1009.2
20260505023008 36 128 7.0 16.0 0.00 0.00 0.00 94 1009.6
20260505021506 37 111 8.0 20.0 0.00 0.00 0.00 94 1009.4
20260505020004 37 110 8.0 14.0 0.00 0.00 0.00 93 1009.4
20260505014502 37 94 5.0 12.0 0.00 0.00 0.00 91 1009.3
20260505013103 37 111 3.0 16.0 0.00 0.00 0.00 87 1009.4
20260505011600 37 111 3.0 14.0 0.00 0.00 0.00 85 1009.4
20260505010057 38 112 7.0 13.0 0.00 0.00 0.00 83 1009.4
20260505004554 38 101 6.0 16.0 0.00 0.00 0.00 82 1009.5
20260505003056 38 77 5.0 12.0 0.00 0.00 0.00 84 1009.5
20260505001554 38 102 6.0 12.0 0.00 0.00 0.00 85 1009.6
20260505000054 38 82 3.0 10.0 0.00 0.00 0.00 86 1009.5
20260504234557 38 105 8.0 15.0 0.00 0.00 0.00 85 1009.4
20260504233044 38 89 4.0 14.0 0.00 0.00 0.00 84 1009.1
20260504231556 39 96 6.0 13.0 0.00 0.00 0.00 83 1009.1
20260504230039 39 120 4.0 13.0 0.00 0.00 0.00 85 1009.0
20260504224539 38 110 4.0 13.0 0.00 0.00 0.00 86 1009.1
20260504223034 39 104 4.0 13.0 0.00 0.00 0.00 82 1009.1
20260504221533 39 91 4.0 10.0 0.00 0.00 0.00 82 1009.2
20260504220034 39 105 4.0 9.0 0.00 0.00 0.00 79 1009.2
20260504214528 38 94 1.0 7.0 0.00 0.00 0.00 86 1009.4
20260504213027 38 97 2.0 8.0 0.00 0.00 0.00 83 1009.7
20260504211524 38 77 4.0 8.0 0.00 0.00 0.00 82 1009.6
20260504210019 38 101 2.0 7.0 0.00 0.00 0.00 84 1009.3
20260504204517 38 117 2.0 9.0 0.00 0.00 0.00 83 1009.2
20260504203022 38 94 5.0 10.0 0.00 0.00 0.00 81 1009.2
20260504201514 37 89 2.0 10.0 0.00 0.00 0.00 85 1008.9
20260504200012 37 101 1.0 7.0 0.00 0.00 0.00 85 1009.3
20260504194522 37 78 3.0 8.0 0.00 0.00 0.00 84 1009.3
20260504193014 36 103 3.0 10.0 0.00 0.00 0.00 85 1008.8
20260504191505 38 89 4.0 9.0 0.00 0.00 0.00 82 1009.1
20260504190130 38 85 7.0 13.0 0.00 0.00 0.00 79 1008.7
20260504184600 37 94 5.0 11.0 0.00 0.00 0.00 83 1008.6
20260504183056 38 24 6.0 12.0 0.00 0.00 0.00 83 1008.6
20260504181557 38 107 3.0 9.0 0.00 0.00 0.00 84 1008.4
20260504180133 38 108 3.0 10.0 0.00 0.00 0.00 85 1007.9
20260504174548 38 106 5.0 11.0 0.00 0.00 0.00 85 1007.6
20260504173056 39 142 3.0 9.0 0.00 0.00 0.00 83 1007.3
20260504171542 38 94 4.0 11.0 0.00 0.00 0.00 80 1007.2